Regional Weather Roundup
Issued by NWS Spokane, WA

Home | Current Version | Previous Version | Text Only | Print | Product List | Glossary On
Versions: 1 2 3 4 5 6 7 8 9 10 11 12 13 14 15 16 17 18 19 20 21 22 23 24 25 26 27 28 29 30 31 32 33 34 35 36 37 38 39 40 41 42 43 44 45 46 47 48 49 50
000
NZUS01 KOTX 292010
RWROTX
EASTERN WASHINGTON/NORTHERN IDAHO ROUNDUP
NATIONAL WEATHER SERVICE, SPOKANE WA
100 PM PDT FRI AUG 29 2014

Note: "fair" indicated few or no clouds below 12,000 feet with no
significant weather and/or obstructions to visibility.

...NORTHEAST WASHINGTON AND NORTHERN IDAHO PANHANDLE...

CITY           SKY/WX    TMP DP  RH WIND       PRES   REMARKS
SPOKANE INTL   MOSUNNY   78  44  29 SW15G23   29.89F
SPOKANE DOWNTO SUNNY     81  43  26 W10G20    29.88F
COEUR D ALENE  SUNNY     81  48  32 SW12G25   29.88F
DEER PARK      MOSUNNY   80  44  27 SW15      29.88F
SANDPOINT      SUNNY     77  50  38 SE5       29.88F

...SOUTHEAST WASHINGTON AND SOUTHERN IDAHO PANHANDLE...

CITY           SKY/WX    TMP DP  RH WIND       PRES   REMARKS
WALLA WALLA    SUNNY     84  48  28 SW13      29.88F
PULLMAN/MOSCOW SUNNY     81  39  22 SW13G23   29.94F
LEWISTON       SUNNY     83  42  23 W3        29.87F
LOWELL           N/A     86  50  28 CALM      29.84F

...COLUMBIA BASIN...

CITY           SKY/WX    TMP DP  RH WIND       PRES   REMARKS
EPHRATA        SUNNY     82  47  29 SW15      29.83F
MOSES LAKE     SUNNY     83  44  25 SW8       29.84F
TRI CITIES     SUNNY     84  52  33 SW7       29.83F
HERMISTON      SUNNY     85  49  28 W14G21    29.84F
PENDLETON      SUNNY     83  45  26 W7G18     29.88F

...EAST SLOPES CASCADES...

CITY           SKY/WX    TMP DP  RH WIND       PRES   REMARKS
THE DALLES     MOSUNNY   80  54  40 NW22G33   29.87F
YAKIMA         MOSUNNY   83  48  29 E7        29.85F
ELLENSBURG     PTSUNNY   74  50  42 NW23G32   29.88F
WENATCHEE      PTSUNNY   81  44  27 S6        29.82F
OMAK           PTSUNNY   79  45  29 SW10      29.80F

...SOUTHERN BRITISH COLUMBIA...

CITY           SKY/WX    TMP DP  RH WIND       PRES   REMARKS
PENTICTON      CLOUDY    70  52  52 N3        29.82F

...WESTERN MONTANA...

CITY           SKY/WX    TMP DP  RH WIND       PRES   REMARKS
MISSOULA       SUNNY     79  39  23 SE6       29.93F

...NEIGHBORING CITIES...

CITY           SKY/WX    TMP DP  RH WIND       PRES   REMARKS
SEATTLE        CLOUDY    64  50  60 W8        30.01R
CALGARY        CLOUDY    63  52  67 S9        29.83F



USA.gov is the U.S. government's official web portal to all federal, state and local government web resources and services.